Regional Weather Roundup
Issued by NWS

Home | Current Version | Previous Version | Text Only | Print | Product List | Glossary On
Versions: 1 2 3 4 5 6 7 8 9 10 11 12 13 14 15 16 17 18 19 20 21 22 23 24 25 26 27 28 29 30 31 32 33 34 35 36 37 38 39 40 41 42 43 44 45 46 47 48 49 50
000
ASUS44 KFWD 190701
RWRTX
NORTH TEXAS HOURLY WEATHER ROUNDUP
NATIONAL WEATHER SERVICE FORT WORTH TX
200 AM CDT SAT AUG 19 2017

NOTE: "FAIR" INDICATES FEW OR NO CLOUDS BELOW 12,000 FEET WITH NO
SIGNIFICANT WEATHER AND/OR OBSTRUCTIONS TO VISIBILITY.

TXZ118-119-190800-
DALLAS/FORT WORTH METROPLEX

CITY           SKY/WX    TMP DP  RH WIND       PRES   REMARKS
DFW AIRPORT    PTCLDY    82  74  76 CALM      29.97F
DALLAS LOVE    PTCLDY    83  73  72 VRB3      29.97F
FTW MEACHAM    CLEAR     79  76  90 CALM      29.98F
DAL-EXECUTIVE  CLEAR     80  75  84 S3        29.97F
FTW-ALLIANCE   CLEAR     75  74  96 CALM      29.98F
ARLINGTON      PTCLDY    75  75 100 CALM      29.98F
GRAND PRAIRIE  PTCLDY    82  71  71 CALM      29.99F
ADDISON        CLEAR     80  73  78 SE5       30.00F
MESQUITE         N/A     77  75  92 CALM      29.98F
LANCASTER      CLEAR     78  73  85 CALM      29.99F HAZE
$$

TXZ091>094-102>105-117-120-121-131>134-190800-
NORTH CENTRAL TEXAS

CITY           SKY/WX    TMP DP  RH WIND       PRES   REMARKS
SHRMAN/DENISON CLEAR     76  74  94 S6        30.00F
GAINESVILLE    CLEAR     73  71  95 CALM      30.01F
BOWIE          CLEAR     74  73  97 CALM      30.01S
BRIDGEPORT     CLEAR     74  74 100 CALM      30.02S
DECATUR        CLEAR     78  73  85 SE6       30.00F
DENTON         CLEAR     74  74 100 CALM      29.99S
MCKINNEY       CLEAR     77  77 100 CALM      29.98F
BONHAM         CLEAR     75  73  94 S5        29.99F
ROCKWALL       CLEAR     79  75  86 S6        29.99F
TERRELL        CLEAR     81  73  76 SE6       29.98F
WAXAHACHIE     CLEAR     78  74  86 SE5       30.00F
CLEBURNE       CLEAR     79  75  89 S3        30.01F
GRANBURY       PTCLDY    80  73  78 CALM      30.00F
$$

TXZ083>090-098>101-113>116-127>130-139>142-154-155-190800-
WESTERN NORTH TEXAS

CITY           SKY/WX    TMP DP  RH WIND       PRES   REMARKS
WICHITA FALLS  CLEAR     76  73  91 S5        29.98F
WF-KICKAPOO    PTCLDY    77  74  89 SE3       30.01F
VERNON         PTCLDY    78  69  75 S3        30.00S
ABILENE        PTCLDY    75  72  90 SE6       30.04S
BRECKENRIDGE   CLEAR     78  72  81 SE9       30.01F
CISCO            N/A     75  73  94 SE6       30.04F
EASTLAND       CLEAR     73  71  93 CALM      30.03S
RANGER         CLEAR     74  71  91 CALM      30.03F
MINERAL WELLS  CLEAR     75  71  87 SE8       29.99F
STEPHENVILLE   CLEAR     77  70  79 CALM      30.04F
COMANCHE       CLEAR     75  75 100 SE3       30.03S
BROWNWOOD      CLOUDY    77  68  73 CALM      30.02F
COLEMAN        CLOUDY    78  67  66 S3        30.03F
$$

TXZ143>147-156>162-174-175-190800-
CENTRAL TEXAS

CITY           SKY/WX    TMP DP  RH WIND       PRES   REMARKS
WACO           CLEAR     84  71  65 S12       29.99S
WACO-MCGREGOR  CLEAR     83  71  67 S10       30.00S
HILLSBORO      CLEAR     82  71  70 SE7       29.99F
CORSICANA      CLEAR     81  73  76 S7        30.00F
MEXIA          CLEAR     77  69  76 S9        29.99S
HEARNE         CLEAR     79  73  81 CALM      30.02S
CAMERON        CLEAR     82  71  70 S9        30.00F
TEMPLE         PTCLDY    82  71  69 S12       30.00F
KILLEEN        CLEAR     81  70  69 S6        30.01S
KILLEEN-SKYLRK PTCLDY    82  71  69 S9        30.01F
FORT HOOD      PTCLDY    81  70  68 S9        29.98S
HAMILTON       CLEAR     76  67  75 S6        30.03F
LAMPASAS       CLEAR     81  71  72 CALM      30.01F
$$

TXZ095>097-106>112-122>126-135>138-148>153-164>167-190800-
EAST TEXAS

CITY           SKY/WX    TMP DP  RH WIND       PRES   REMARKS
PARIS          CLEAR     77  75  93 SE3       30.00F
SULPHUR SPRNGS CLEAR     81  74  79 S7        30.01F
MOUNT PLEASANT CLEAR     77  75  92 CALM      30.00F
GILMER         CLEAR     78  76  92 CALM      29.99F
MINEOLA        CLEAR     77  75  94 E6        29.99F
TYLER          CLEAR     80  76  87 S6        29.99F
LONGVIEW       CLEAR     80  77  90 S5        29.98F
MARSHALL         N/A     75  73  92 CALM      30.01F
ATHENS         CLEAR     79  72  78 CALM      29.98F
PALESTINE      CLEAR     82  75  78 S3        30.01F
JACKSONVILLE   CLEAR     79  74  85 S5        30.03F
HENDERSON      CLEAR     78  74  87 CALM      30.01F
CENTER         CLOUDY    83  79  87 S5        30.01F HX  95
NACOGDOCHES    PTCLDY    79  76  90 S5        30.01F
LUFKIN         CLEAR     79  75  87 S5        30.00F
$$

SUPPLEMENTAL OBSERVATIONS (NWS FORT WORTH AREA)

CITY           SKY/WX    TMP DP  RH WIND       PRES   REMARKS
$$

SUPPLEMENTAL OBSERVATIONS (NWS NORMAN AREA)

CITY           SKY/WX    TMP DP  RH WIND       PRES   REMARKS
GOODLETT         N/A     77  68  74 S7        30.01S
ODELL            N/A     79  72  78 S9        30.01S
CROWELL          N/A     78  72  81 S6        30.02S
KNOX CITY        N/A     80  68  67 S10       30.02S
SEYMOUR          N/A     79  71  76 S5        30.01S
$$

SUPPLEMENTAL OBSERVATIONS (NWS SAN ANGELO AREA)

CITY           SKY/WX    TMP DP  RH WIND       PRES   REMARKS
WEINERT          N/A     77  71  81 S7        30.02F
HASKELL          N/A     78  68  69 SE6       30.03S
THROCKMORTON     N/A     78  74  86 S5        30.03S
STAMFORD         N/A     78  71  80 SE6       30.04S
CLYDE            N/A     75  71  85 SE7       30.06F
$$

SUPPLEMENTAL OBSERVATIONS (NWS SHREVEPORT AREA)

CITY           SKY/WX    TMP DP  RH WIND       PRES   REMARKS
$$

SUPPLEMENTAL OBSERVATIONS ARE A COLLECTION OF AUTOMATED INSTRUMENTS
THAT ARE MAINTAINED BY A VARIETY OF FEDERAL AND STATE AGENCIES.
CERTAIN ELEMENTS...SUCH AS HUMIDITY VALUES AND SUSTAINED WIND
SPEEDS...MAY BE APPROXIMATED.




USA.gov is the U.S. government's official web portal to all federal, state and local government web resources and services.